Weather History for Barcelona / Aeropuerto, Spain

Change the Weather History Date:

Sunday, January 19, 2014

  Actual Average Record
Temperature  
Mean Temperature 52 °F -  
Max Temperature 56 °F 55 °F - ()
Min Temperature 48 °F 41 °F - ()
Degree Days  
Heating Degree Days 13    
Growing Degree Days 2 (Base 50)    
Moisture  
Dew Point 47 °F    
Average Humidity 86    
Maximum Humidity 100    
Minimum Humidity 66    
Precipitation  
Precipitation 0.20 in 0.05 in - ()
Sea Level Pressure  
Sea Level Pressure 29.42 in    
Wind  
Wind Speed 6 mph ()    
Max Wind Speed 16 mph    
Max Gust Speed 26 mph    
Visibility 7.8 miles    
Events Rain    
T = Trace of Precipitation, MM = Missing Value Source: Averaged Metar Reports

Daily Weather History Graph

Daily Weather History Graph

Search for Another Location

Airport:

Trip Planner

Search our weather history database for the weather conditions in past years. The results will help you decide how hot, cold, wet, or windy it might be!

Date:

Astronomy

Jan. 19, 2014 Rise Set
Actual Time 8:13 AM CET 5:51 PM CET
Civil Twilight 7:43 AM CET 6:22 PM CET
Nautical Twilight 7:09 AM CET 6:55 PM CET
Astronomical Twilight 6:36 AM CET 7:28 PM CET
Moon 9:18 PM CET (1/19) 9:33 AM CET (1/19)
Length of Visible Light 10h 38m
Length of Day
9h 38m
Waning Gibbous, 91% of the Moon is Illuminated
Jan 19
Waning Gibbous
Jan 24
Last Quarter
Jan 30
New
Feb 6
First Quarter
Feb 15
Full

Hourly Weather History & Observations

Time (CET) Temp. Dew Point Humidity Pressure Visibility Wind Dir Wind Speed Gust Speed Precip Events Conditions
12:00 AM 51 °F 51 °F 99% 29.41 in 6 mi North 3.5 mph - -   Mist
12:00 AM 51.8 °F 48.2 °F 88% 29.39 in 5.6 mi NNW 3.5 mph - N/A   Mostly Cloudy
12:30 AM 50.0 °F 48.2 °F 94% 29.39 in 6.2 mi Calm Calm - N/A   Mostly Cloudy
1:00 AM 50 °F 49 °F 95% 29.39 in 7 mi North 6.9 mph - -   Scattered Clouds
1:00 AM 50.0 °F 46.4 °F 87% 29.39 in 6.2 mi NW 3.5 mph - N/A   Partly Cloudy
1:30 AM 50.0 °F 48.2 °F 94% 29.39 in 5.0 mi NW 5.8 mph - N/A Rain Light Rain Showers
2:00 AM 50 °F 50 °F 99% 29.39 in 5 mi ESE 2.3 mph - - Rain Rain
2:00 AM 50.0 °F 48.2 °F 94% 29.39 in 4.3 mi NW 3.5 mph - N/A Rain Light Rain
2:30 AM 50.0 °F 48.2 °F 94% 29.36 in 5.6 mi NNW 1.2 mph - N/A   Scattered Clouds
3:00 AM 50 °F 49 °F 97% 29.37 in 6 mi North 4.6 mph - -   Mist
3:00 AM 50.0 °F 48.2 °F 94% 29.36 in 5.6 mi NW 5.8 mph - N/A   Mostly Cloudy
3:30 AM 50.0 °F 48.2 °F 94% 29.36 in 6.2 mi NNW 8.1 mph - N/A   Mostly Cloudy
4:00 AM 51 °F 49 °F 88% 29.37 in 9 mi North 8.1 mph - -   Partly Cloudy
4:00 AM 50.0 °F 46.4 °F 87% 29.36 in 6.2 mi NW 6.9 mph - N/A   Mostly Cloudy
4:30 AM 50.0 °F 46.4 °F 87% 29.36 in 6.2 mi NNW 6.9 mph - N/A   Mostly Cloudy
5:00 AM 50 °F 48 °F 90% 29.36 in 19 mi North 5.8 mph - -  
5:00 AM 50.0 °F 46.4 °F 87% 29.36 in 6.2 mi North 4.6 mph - N/A   Mostly Cloudy
5:30 AM 50.0 °F 46.4 °F 87% 29.36 in 6.2 mi NNW 6.9 mph - N/A   Mostly Cloudy
6:00 AM 49 °F 49 °F 98% 29.36 in 19 mi North 10.4 mph - -  
6:00 AM 50.0 °F 46.4 °F 87% 29.36 in 6.2 mi NW 8.1 mph - N/A   Mostly Cloudy
6:30 AM 48.2 °F 46.4 °F 93% 29.36 in 5.6 mi North 6.9 mph - N/A Rain Light Rain
7:00 AM 49 °F 48 °F 97% 29.37 in 3 mi North 4.6 mph - - Rain Rain
7:00 AM 48.2 °F 46.4 °F 93% 29.36 in 3.1 mi North 8.1 mph - N/A Rain Rain
7:16 AM 48.2 °F 46.4 °F 93% 29.36 in 5.6 mi NNE 8.1 mph - N/A   Mostly Cloudy
7:30 AM 48.2 °F 46.4 °F 93% 29.36 in 6.2 mi North 8.1 mph - N/A   Mostly Cloudy
8:00 AM 49 °F 49 °F 98% 29.37 in 5 mi North 8.1 mph - - Rain Rain
8:00 AM 48.2 °F 46.4 °F 93% 29.36 in 6.2 mi NNW 4.6 mph - N/A Rain Light Rain
8:30 AM 48.2 °F 46.4 °F 93% 29.36 in 6.2 mi NNW 6.9 mph - N/A   Mostly Cloudy
8:50 AM 48.2 °F 46.4 °F 93% 29.39 in 1.2 mi NNW 9.2 mph 20.7 mph N/A Rain Heavy Rain Showers
9:00 AM 49 °F 49 °F 98% 29.38 in 5 mi North 12.7 mph - - Rain Heavy Rain
9:00 AM 48.2 °F 46.4 °F 93% 29.36 in 5.6 mi NW 10.4 mph - N/A Rain Light Rain Showers
9:30 AM 48.2 °F 46.4 °F 93% 29.39 in 5.6 mi NNW 8.1 mph - N/A   Mostly Cloudy
10:00 AM 49 °F 49 °F 100% 29.40 in 9 mi North 9.2 mph - -   Partly Cloudy
10:00 AM 48.2 °F 48.2 °F 100% 29.39 in 6.2 mi NNW 8.1 mph - N/A   Scattered Clouds
10:30 AM 50.0 °F 46.4 °F 87% 29.39 in 6.2 mi NW 6.9 mph - N/A   Scattered Clouds
11:00 AM 51 °F 49 °F 91% 29.41 in 10 mi NNW 10.4 mph - -   Clear
11:00 AM 50.0 °F 48.2 °F 94% 29.39 in 6.2 mi NW 9.2 mph - N/A   Scattered Clouds
11:30 AM 50.0 °F 46.4 °F 87% 29.42 in 6.2 mi NNW 13.8 mph - N/A   Scattered Clouds
12:00 PM 53 °F 50 °F 84% 29.42 in 14 mi North 13.8 mph - -  
12:00 PM 51.8 °F 48.2 °F 88% 29.42 in 6.2 mi NNW 16.1 mph - N/A   Scattered Clouds
12:30 PM 51.8 °F 48.2 °F 88% 29.39 in 6.2 mi NW 12.7 mph 26.5 mph N/A   Scattered Clouds
1:00 PM 55 °F 50 °F 78% 29.40 in 16 mi North 11.5 mph - -   Partly Cloudy
1:00 PM 53.6 °F 48.2 °F 82% 29.39 in 6.2 mi NNW 11.5 mph - N/A   Scattered Clouds
1:30 PM 53.6 °F 46.4 °F 77% 29.39 in 6.2 mi NNW 8.1 mph - N/A   Partly Cloudy
2:00 PM 55 °F 48 °F 70% 29.39 in 19 mi North 9.2 mph - -  
2:00 PM 55.4 °F 44.6 °F 67% 29.39 in 6.2 mi NNW 5.8 mph - N/A   Partly Cloudy
2:30 PM 55.4 °F 44.6 °F 67% 29.39 in 6.2 mi NW 8.1 mph - N/A   Partly Cloudy
3:00 PM 56 °F 48 °F 66% 29.39 in 19 mi North 10.4 mph - -  
3:00 PM 55.4 °F 46.4 °F 72% 29.39 in 6.2 mi NNW 10.4 mph 21.9 mph N/A   Partly Cloudy
3:30 PM 55.4 °F 44.6 °F 67% 29.39 in 6.2 mi NE 8.1 mph 19.6 mph N/A   Scattered Clouds
4:00 PM 55 °F 49 °F 74% 29.42 in 19 mi East 6.9 mph - -   Partly Cloudy
4:00 PM 55.4 °F 46.4 °F 72% 29.42 in 6.2 mi East 6.9 mph - N/A   Scattered Clouds
4:30 PM 53.6 °F 46.4 °F 77% 29.42 in 6.2 mi East 5.8 mph - N/A   Scattered Clouds
5:00 PM 54 °F 48 °F 75% 29.44 in 19 mi East 8.1 mph - -  
5:00 PM 53.6 °F 46.4 °F 77% 29.44 in 6.2 mi East 4.6 mph - N/A   Mostly Cloudy
5:30 PM 53.6 °F 46.4 °F 77% 29.44 in 6.2 mi East 4.6 mph - N/A   Scattered Clouds
6:00 PM 54 °F 48 °F 74% 29.46 in 19 mi East 6.9 mph - -  
6:00 PM 53.6 °F 46.4 °F 77% 29.44 in 6.2 mi East 6.9 mph - N/A   Scattered Clouds
6:30 PM 53.6 °F 46.4 °F 77% 29.47 in 6.2 mi ESE 3.5 mph - N/A   Mostly Cloudy
7:00 PM 51 °F 48 °F 85% 29.49 in 4 mi North 9.2 mph - - Rain Light Rain
7:00 PM 51.8 °F 46.4 °F 82% 29.47 in 4.3 mi NNW 6.9 mph - N/A Rain Rain Showers
7:30 PM 50.0 °F 44.6 °F 82% 29.50 in 5.0 mi NW 10.4 mph - N/A Rain Light Rain Showers
8:00 PM 49 °F 47 °F 90%  in 12 mi ENE 10.4 mph - - Rain Drizzle
8:00 PM 48.2 °F 44.6 °F 87% 29.50 in 6.2 mi ENE 5.8 mph - N/A Rain Light Rain Showers
8:30 PM 50.0 °F 44.6 °F 82% 29.53 in 6.2 mi East 4.6 mph - N/A   Scattered Clouds
9:00 PM 51 °F 45 °F 74% 29.55 in 19 mi NNE 3.5 mph - -   Clear
9:00 PM 50.0 °F 42.8 °F 76% 29.53 in 6.2 mi East 3.5 mph - N/A   Scattered Clouds
9:30 PM 50.0 °F 44.6 °F 82% 29.53 in 6.2 mi ESE 3.5 mph - N/A   Scattered Clouds
10:00 PM 50 °F 46 °F 81% 29.57 in 11 mi NNW 2.3 mph - -   Mostly Cloudy
10:00 PM 50.0 °F 44.6 °F 82% 29.56 in 6.2 mi Calm Calm - N/A   Scattered Clouds
10:30 PM 50.0 °F 42.8 °F 76% 29.56 in 6.2 mi Calm Calm - N/A   Scattered Clouds
11:00 PM 50 °F 46 °F 81% 29.58 in 11 mi NNW 3.5 mph - -  
11:00 PM 50.0 °F 42.8 °F 76% 29.56 in 6.2 mi Calm Calm - N/A   Scattered Clouds
11:30 PM 48.2 °F 44.6 °F 87% 29.56 in 6.2 mi West 3.5 mph - N/A   Scattered Clouds